Observations

BIA Manual Entry


Date Temp Humidity Rainfall Dew Point Wind Direction Wind Speed Wind Pressure Condition Visibility
2025-03-14 00:58:41 27 86 25 040 3.8 1010 Partly Cloudy (Night) 10 KM
2025-03-13 23:59:10 28 84 25 050 5.7 1011 Partly Cloudy (Night) 10 KM
2025-03-13 23:00:16 28 83 25 040 5.7 1011 Partly Cloudy (Night) 10 KM
2025-03-13 21:59:44 29 82 25 030 7.6 1010 Lightning 10 KM
2025-03-13 20:58:16 28 82 0.00 25 010 7.6 1010 Partly Cloudy (Night) 10 km
2025-03-13 20:01:32 29 82 0.00 25 360 9.5 1009 Partly Cloudy (Night) 10 km
2025-03-13 19:01:14 29 81 0.00 25 360 11.4 1008 Partly Cloudy (Night) 10 km
2025-03-13 18:01:52 29 78 0.0 25 350 13.3 1007 Partly Cloudy (Night) 10 km
2025-03-13 17:00:52 30 74 0.00 25 320 17.1 1007 Thunderstorm 20 KM
2025-03-13 16:01:06 31 67 0.00 24 300 15.2 1007 Cloudy 20 KM
2025-03-13 15:01:07 31 68 0.00 25 300 19.0 1008 Cloudy 20 KM
2025-03-13 13:58:27 31 68 0.00 25 300 17.1 1008 Cloudy 20 KM
2025-03-13 12:58:22 31 72 0.0 25 290 16 1009 Cloudy 20 km
2025-03-13 11:59:46 31 73 0.0 25 350 10 1010 Cloudy 20 km
2025-03-13 11:00:16 30 73 0.0 25 300 6 1011 Cloudy 20 km
2025-03-13 09:59:44 30 73 25 140 3.8 1011 Partly Cloudy (Day) 20 KM
2025-03-13 08:58:10 28 77 24 190 11.4 1011 Partly Cloudy (Day) 20 KM
2025-03-13 07:56:57 26 84 0.0 24 170 4.0 1011 Partly Cloudy (Day) 15 KT
2025-03-13 06:57:20 25 93 0.0 23 170 4.0 1010 Partly Cloudy (Day) 10 KM
2025-03-13 05:58:35 25 92 0.0 24 190 6.0 1009 Partly Cloudy (Night) 10 KM
2025-03-13 05:03:28 25 91 0.0 23 180 4.0 1008 Partly Cloudy (Night) 10 KM
2025-03-13 03:57:40 25 90 0.0 23 200 4.0 1008 Partly Cloudy (Night) 10 km
2025-03-13 02:58:29 25 90 0.0 23 200 5.0 1008 Partly Cloudy (Night) 10 km
2025-03-13 02:28:35 25 90 0.00 23 230 5.7 1009 Partly Cloudy (Night) 10KM
2025-03-13 00:59:58 25 90 0.00 23 210 5.7 1010 Partly Cloudy (Night) 10KM